Arlington, IN

12:12 PM EDT on May 03, 2015 (GMT -0400)
City of Rushville | | Change Station
CLOSE
Current Station
Personal Weather Station
Location: Rushville, IN
Elevation: 978 ft
Nearby Weather Stations

Elev 978 ft 39.62 °N, 85.43 °W | Updated 12 minutes ago

Partly Cloudy
Partly Cloudy
75.9 °F
Feels Like 78 °F
N
7.3
Wind Variable Wind from SSW

Today
High -- | Low -- °F
--% Chance of Precip.
Yesterday
High -- | Low -- °F
Precip. -- in
6:40 AM 8:38 PM
Full, 100% visible
Pressure 30.10 in
Visibility 10.0 miles
Clouds Overcast 11000 ft
Heat Index 78 °F
Dew Point 49 °F
Humidity 39%
Rainfall 0.00 in
Snow Depth Not available.
UV 3 out of 12
Pollen 10.70 out of 12
Air Quality Not available.
Flu Activity Local Activity
METAR KGEZ 031553Z AUTO 22013KT 10SM OVC110 22/09 A3010 RMK AO2 SLP191 T02220094

More Conditions Fewer Conditions

Pressure 30.10 in
Visibility 10.0 miles
Clouds Overcast 11000 ft
Heat Index 78 °F
Dew Point 49 °F
Humidity 39%
Rainfall 0.00 in
Snow Depth Not available.
UV 3 out of 12
Pollen 10.70 out of 12
Air Quality Not available.
Flu Activity Local Activity
METAR KGEZ 031553Z AUTO 22013KT 10SM OVC110 22/09 A3010 RMK AO2 SLP191 T02220094

More Conditions Fewer Conditions

Nepal has a long way to go to dig out and rebuild from a devastating earthquake. We have teamed up with several charities and organizations to make contributing to the relief effort as easy as possible.
How you can help: Portlight Strategies | Red Cross

10-Day Weather Forecast

Almanac

Astronomy

May. 03, 2015 Rise Set
Actual Time
Civil Twilight
Nautical Twilight
Astronomical Twilight
Moon
Length of Visible Light
Length of Day
Tomorrow will be .
, % of the Moon is Illuminated

Today's Extremes

State Highs State Lows

Community

WunderPhotos

Upload Photos

1,818,260 photos uploaded!

WunderBlogs® & News

Nearby

Air Quality

  Air Quality AQ Index Pollutant
Not available.

Snow Depth

Station Depth Elevation

Earthquake Activity

City Distance Mag. Time & Date
Minimum magnitude displayed is 2.5.

Coastal Water Temperatures

Place Temperature

Stations

Nearby Weather Stations

Station Location Temp. Windchill Dew Point Humidity Wind Precip. Elev Updated Type